#timestamp,LO_Frequency,Hit,StdDev 
1512900015.4,286046991.5,Y
1512900035.2,286046991.1,P
1512900055.0,286046990.6,N
1512900055.9,286046990.6,N
1512900075.8,286046991.5,N
1512900095.6,286046991.2,N
1512900115.5,286046991.4,N
1512900135.3,286046991.1,Y
1512900155.1,286046998.8,P
1512900175.9,286046998.6,N
1512900195.7,286046999.4,N
1512900215.6,286046995.3,N
1512900235.4,286046999.6,N
1512900255.2,286047000.7,N
1512900275.1,286046999.7,N
1512900276.0,286046999.7,N
1512900295.8,286047002.6,N
1512900315.7,286047000.9,N
1512900335.5,286046998.7,N
1512900355.3,286046997.7,N
1512900375.2,286046997.2,N
1512900395.0,286046996.8,N
1512900395.9,286046996.8,N
1512900415.7,286047000.5,N
1512900435.6,286046998.7,N
1512900455.4,286046996.8,N
1512900475.3,286046995.9,N
1512900495.1,286046993.9,N
1512900515.8,286046993.9,N
1512900535.7,286046996.4,N
1512900555.5,286046997.6,N
1512900575.4,286046997.5,N
1512900595.2,286046997.7,N
1512900615.0,286046995.1,N
1512900615.9,286046995.1,N
1512900635.8,286046993.4,N
1512900655.6,286046997.7,N
1512900675.4,286046997.6,N
1512900695.3,286046997.1,N
1512900715.1,286046995.6,N
1512900735.9,286046997.9,N
1512900755.7,286046997.6,N
1512900775.5,286046995.1,N
1512900795.4,286046995.7,N
1512900815.2,286046993.8,N
1512900835.1,286046993.4,Y
1512900836.0,286046993.4,P
1512900855.8,286046997.8,N
1512900875.6,286046996.4,N
1512900895.5,286046993.7,Y
1512900915.3,286046997.8,P
1512900935.2,286046997.3,P
1512900955.9,286046997.7,P
1512900975.7,286046996.6,Y
1512900995.6,286047002.0,P
1512901015.4,286046998.2,N
1512901035.2,286046998.9,N
1512901055.1,286046996.0,N
1512901056.0,286046996.0,N
1512901075.8,286046996.1,N
1512901095.7,286046997.1,N
1512901115.5,286046997.3,N
1512901135.3,286046996.6,N
1512901155.2,286046999.4,N
1512901175.0,286046997.0,N
1512901175.9,286046997.0,N
1512901195.8,286046997.1,N
1512901215.6,286046998.3,N
1512901235.4,286047000.8,N
1512901255.3,286046998.3,N
1512901275.1,286047004.4,N
1512901295.8,286047004.0,N
1512901315.7,286047003.1,N
1512901335.5,286047000.0,N
1512901355.4,286046999.2,N
1512901375.2,286046994.9,N
1512901395.0,286046997.3,N
1512901395.9,286046997.3,N
1512901415.8,286046996.7,N
1512901435.6,286046999.5,N
1512901455.5,286047001.2,N
1512901475.3,286046998.8,N
1512901495.1,286046998.7,N
1512901515.9,286046998.3,N
1512901535.7,286047000.5,N
1512901555.5,286047001.1,N
1512901575.4,286047000.8,N
1512901595.2,286046998.4,N
1512901615.1,286047000.8,N
1512901616.0,286047000.8,N
1512901635.8,286046998.1,N
1512901655.6,286046999.0,N
1512901675.5,286046996.5,N
1512901695.3,286046997.4,N
1512901715.1,286046995.7,N
1512901735.9,286046997.9,N
1512901755.7,286046997.1,N
1512901775.6,286047000.8,N
1512901795.4,286046999.1,N
1512901815.2,286046996.9,N
1512901835.1,286046998.8,N
1512901836.0,286046998.8,N
1512901855.8,286046997.0,N
1512901875.7,286046997.4,N
1512901895.5,286046999.5,N
1512901915.3,286046998.4,N
1512901935.2,286046998.7,N
1512901955.0,286047000.6,N
1512901955.9,286047000.6,N
1512901975.7,286046998.6,N
1512901995.6,286046998.2,N
1512902015.4,286047000.8,N
1512902035.3,286046999.5,N
1512902055.1,286046997.4,N
1512902075.8,286046999.6,N
1512902095.7,286046998.7,N
1512902115.5,286046999.9,N
1512902135.4,286046999.3,N
1512902155.2,286046998.6,N
1512902175.0,286046999.1,N
1512902175.9,286046999.1,N
1512902195.8,286046996.8,N
1512902215.6,286046996.5,N
1512902235.4,286046998.8,N
1512902255.3,286046999.4,N
1512902275.1,286046996.6,N
1512902295.9,286046995.4,Y
1512902315.7,286046998.2,P
1512902335.5,286046998.3,P
1512902355.4,286046999.0,P
1512902375.2,286046997.0,Y
1512902395.1,286047002.7,P
1512902396.0,286047002.7,N
1512902415.8,286047000.6,N
1512902435.6,286046999.9,N
1512902455.5,286047001.3,N
1512902475.3,286047002.0,N
1512902495.2,286047000.9,N
1512902515.9,286046999.1,N
1512902535.7,286047000.3,N
1512902555.6,286047001.1,N
1512902575.4,286046998.7,N
1512902595.2,286046999.0,N
1512902615.1,286046998.1,N
1512902616.0,286046998.1,N
1512902635.8,286046998.1,N
1512902655.7,286047000.1,N
1512902675.5,286046998.5,N
1512902695.3,286046996.5,N
1512902715.2,286046997.1,N
1512902735.0,286046999.1,N
1512902735.9,286046999.1,N
1512902755.8,286047000.6,N
1512902775.6,286047001.8,N
1512902795.4,286047002.6,N
1512902815.3,286046998.3,N
1512902835.1,286046997.5,N
1512902855.8,286046997.6,N
1512902875.7,286046998.6,N
1512902895.5,286046996.6,N
1512902915.4,286047000.0,N
1512902935.2,286047002.3,N
1512902955.0,286047001.8,N
1512902955.9,286047001.8,N
1512902975.8,286047000.1,N
1512902995.6,286046998.5,N
1512903015.5,286046997.4,N
1512903035.3,286046996.6,N
1512903055.1,286046997.1,N
1512903075.9,286046997.3,N
1512903095.7,286046994.9,N
1512903115.5,286046995.5,N
1512903135.4,286046997.9,N
1512903155.2,286046997.5,N
1512903175.1,286046996.9,N
1512903176.0,286046996.9,N
1512903195.8,286046996.6,N
1512903215.6,286047001.0,N
1512903235.5,286047002.4,N
1512903255.3,286046999.9,N
1512903275.2,286046998.7,N
1512903295.9,286046996.9,N
1512903315.7,286046995.3,N
1512903335.6,286046997.4,N
1512903355.4,286046997.3,N
1512903375.2,286046995.4,N
1512903395.1,286046996.3,N
1512903396.0,286046996.3,N
1512903415.8,286046996.0,N
1512903435.7,286046995.8,N
1512903455.5,286046997.9,N
1512903475.3,286046997.7,N
1512903495.2,286046996.8,N
1512903515.0,286046995.3,N
1512903515.9,286046995.3,N
1512903535.8,286046999.6,N
1512903555.6,286046997.4,N
1512903575.4,286046996.8,N
1512903595.3,286046995.0,N
